Home > Time Zones > World Clock > Weather > Chile > Arica > Past weeks

Flag for Chile Weather past 2 weeks in Arica, Chile

Now
63 °F

Overcast.


Feels Like: 63 °F
Forecast: 58 / 68 °F
Wind: No wind

Location: Arica Airport

Current Time: Jul 29, 2015 at 11:22:13 AM

Latest Report: Jul 29, 2015 at 11:00 AM


Visibility: N/A

Pressure: 30.01 "Hg

Humidity: 68%

Dew point: 52 °F

Location of AricaLocation

Historic Weather in Arica — Graph

°F

Arica temperature yesterday

Maximum temperature yesterday: 63 °F (at 12:00 PM)
Minimum temperature yesterday: 61 °F (at 12:00 AM)
Average temperature yesterday: 62 °F

Past Weeks' High & Low Weather Summary

 TemperatureHumidityPressure
High68 °F (Jul 14, 3:00 PM)88% (Jul 22, 3:00 AM)30.15 "Hg (Jul 22, 3:00 AM)
Low52 °F (Jul 22, 6:00 AM)46% (Jul 14, 3:00 PM)29.80 "Hg (Jul 25, 6:00 PM)
Average62 °F72%30.01 "Hg
* Reported Jul 14 10:00 AM — Jul 29 10:00 AM, Arica, Weather by CustomWeather, © 2015

Note: Actual official high and low records may vary slightly from our data, if they occured in-between our weather recording intervals... More about our weather records

Advertising

Arica weather history for previous 24 hours

 ConditionsComfort  
Time TempWeatherWind HumidityBarometerVisibility
10:00 AM
Wed, Jul 29
61 °FOvercast.2 mph77%29.98 "HgN/A
9:00 AM61 °FOvercast.1 mph72%29.98 "HgN/A
8:00 AM61 °FOvercast.No wind72%29.95 "HgN/A
7:00 AM61 °FOvercast.3 mph72%29.95 "HgN/A
6:00 AM63 °FOvercast.No wind68%29.95 "HgN/A
5:00 AM63 °FOvercast.5 mph68%29.95 "HgN/A
4:00 AM63 °FOvercast.1 mph68%29.98 "HgN/A
3:00 AM63 °FOvercast.1 mph73%29.98 "HgN/A
2:00 AM63 °FOvercast.2 mph77%30.01 "HgN/A
1:00 AM63 °FOvercast.2 mph77%30.01 "HgN/A
12:00 AM61 °FOvercast.7 mph77%29.95 "HgN/A
10:00 PM
Tue, Jul 28
63 °FOvercast.5 mph73%29.98 "HgN/A
9:00 PM63 °FOvercast.5 mph73%29.95 "Hg5 mi
8:00 PM63 °FPassing clouds.5 mph73%29.95 "HgN/A
7:00 PM63 °FOvercast.6 mph73%29.92 "HgN/A
6:00 PM63 °FOvercast.7 mph73%29.89 "HgN/A
5:00 PM63 °FPartly sunny.8 mph68%29.89 "HgN/A
4:00 PM63 °FPartly sunny.8 mph68%29.89 "HgN/A
3:00 PM63 °FPartly sunny.9 mph73%29.92 "HgN/A
2:00 PM63 °FOvercast.8 mph73%29.92 "HgN/A
1:00 PM63 °FOvercast.8 mph73%29.92 "HgN/A
12:00 PM63 °FOvercast.No wind68%29.92 "HgN/A
11:00 AM61 °FOvercast.2 mph77%29.95 "HgN/A
Weather by CustomWeather, © 2015

See weather overviewHow to use our weather pages